#datetime,building,power
2023-05-27T00:00:00,mfh,37.71
2023-05-27T00:01:00,mfh,39.03
2023-05-27T00:02:00,mfh,38.95
2023-05-27T00:03:00,mfh,38.28
2023-05-27T00:04:00,mfh,38.44
2023-05-27T00:05:00,mfh,39.23
2023-05-27T00:06:00,mfh,37.73
2023-05-27T00:07:00,mfh,37.63
2023-05-27T00:08:00,mfh,37.72
2023-05-27T00:09:00,mfh,38.33
2023-05-27T00:10:00,mfh,38.36
2023-05-27T00:11:00,mfh,38.32
2023-05-27T00:12:00,mfh,38.86
2023-05-27T00:13:00,mfh,38.80
2023-05-27T00:14:00,mfh,38.74
2023-05-27T00:15:00,mfh,37.95
2023-05-27T00:16:00,mfh,38.10
2023-05-27T00:17:00,mfh,38.27
2023-05-27T00:18:00,mfh,39.06
2023-05-27T00:19:00,mfh,39.11
2023-05-27T00:20:00,mfh,39.11
2023-05-27T00:21:00,mfh,40.12
2023-05-27T00:22:00,mfh,38.99
2023-05-27T00:23:00,mfh,39.18
2023-05-27T00:24:00,mfh,39.66
2023-05-27T00:25:00,mfh,38.84
2023-05-27T00:26:00,mfh,38.81
2023-05-27T00:27:00,mfh,39.36
2023-05-27T00:28:00,mfh,40.37
2023-05-27T00:29:00,mfh,41.38
2023-05-27T00:30:00,mfh,41.05
2023-05-27T00:31:00,mfh,41.24
2023-05-27T00:32:00,mfh,41.55
2023-05-27T00:33:00,mfh,40.92
2023-05-27T00:34:00,mfh,40.90
2023-05-27T00:35:00,mfh,40.94
2023-05-27T00:36:00,mfh,41.57
2023-05-27T00:37:00,mfh,41.51
2023-05-27T00:38:00,mfh,41.43
2023-05-27T00:39:00,mfh,41.52
2023-05-27T00:40:00,mfh,41.52
2023-05-27T00:41:00,mfh,41.45
2023-05-27T00:42:00,mfh,41.21
2023-05-27T00:43:00,mfh,41.77
2023-05-27T00:44:00,mfh,40.82
2023-05-27T00:45:00,mfh,41.95
2023-05-27T00:46:00,mfh,41.62
2023-05-27T00:47:00,mfh,42.18
2023-05-27T00:48:00,mfh,42.35
2023-05-27T00:49:00,mfh,42.42
2023-05-27T00:50:00,mfh,41.55
2023-05-27T00:51:00,mfh,41.52
2023-05-27T00:52:00,mfh,41.51
2023-05-27T00:53:00,mfh,41.55
2023-05-27T00:54:00,mfh,42.17
2023-05-27T00:55:00,mfh,42.20
2023-05-27T00:56:00,mfh,42.11
2023-05-27T00:57:00,mfh,42.16
2023-05-27T00:58:00,mfh,42.76
2023-05-27T00:59:00,mfh,42.27
2023-05-27T01:00:00,mfh,41.54
2023-05-27T01:01:00,mfh,41.70
2023-05-27T01:02:00,mfh,41.63
2023-05-27T01:03:00,mfh,42.09
2023-05-27T01:04:00,mfh,41.62
2023-05-27T01:05:00,mfh,42.09
2023-05-27T01:06:00,mfh,41.76
2023-05-27T01:07:00,mfh,41.50
2023-05-27T01:08:00,mfh,40.74
2023-05-27T01:09:00,mfh,40.82
2023-05-27T01:10:00,mfh,40.83
2023-05-27T01:11:00,mfh,41.02
2023-05-27T01:12:00,mfh,41.50
2023-05-27T01:13:00,mfh,41.52
2023-05-27T01:14:00,mfh,41.47
2023-05-27T01:15:00,mfh,42.53
2023-05-27T01:16:00,mfh,41.39
2023-05-27T01:17:00,mfh,41.56
2023-05-27T01:18:00,mfh,40.35
2023-05-27T01:19:00,mfh,40.35
2023-05-27T01:20:00,mfh,40.31
2023-05-27T01:21:00,mfh,40.82
2023-05-27T01:22:00,mfh,40.86
2023-05-27T01:23:00,mfh,40.58
2023-05-27T01:24:00,mfh,40.58
2023-05-27T01:25:00,mfh,40.62
2023-05-27T01:26:00,mfh,40.88
2023-05-27T01:27:00,mfh,40.12
2023-05-27T01:28:00,mfh,40.06
2023-05-27T01:29:00,mfh,40.16
2023-05-27T01:30:00,mfh,40.84
2023-05-27T01:31:00,mfh,40.90
2023-05-27T01:32:00,mfh,41.02
2023-05-27T01:33:00,mfh,41.71
2023-05-27T01:34:00,mfh,40.75
2023-05-27T01:35:00,mfh,40.72
2023-05-27T01:36:00,mfh,39.93
2023-05-27T01:37:00,mfh,39.90
2023-05-27T01:38:00,mfh,39.93
2023-05-27T01:39:00,mfh,41.11
2023-05-27T01:40:00,mfh,41.06
2023-05-27T01:41:00,mfh,40.48
2023-05-27T01:42:00,mfh,41.49
2023-05-27T01:43:00,mfh,40.72
2023-05-27T01:44:00,mfh,40.12
2023-05-27T01:45:00,mfh,41.56
2023-05-27T01:46:00,mfh,41.77
2023-05-27T01:47:00,mfh,41.81
2023-05-27T01:48:00,mfh,42.38
2023-05-27T01:49:00,mfh,43.02
2023-05-27T01:50:00,mfh,41.57
2023-05-27T01:51:00,mfh,41.01
2023-05-27T01:52:00,mfh,40.98
2023-05-27T01:53:00,mfh,41.05
2023-05-27T01:54:00,mfh,40.60
2023-05-27T01:55:00,mfh,40.26
2023-05-27T01:56:00,mfh,40.38
2023-05-27T01:57:00,mfh,40.97
2023-05-27T01:58:00,mfh,41.15
2023-05-27T01:59:00,mfh,41.03
2023-05-27T02:00:00,mfh,41.32
2023-05-27T02:01:00,mfh,40.91
2023-05-27T02:02:00,mfh,40.89
2023-05-27T02:03:00,mfh,40.18
2023-05-27T02:04:00,mfh,40.77
2023-05-27T02:05:00,mfh,40.35
2023-05-27T02:06:00,mfh,41.09
2023-05-27T02:07:00,mfh,41.66
2023-05-27T02:08:00,mfh,41.28
2023-05-27T02:09:00,mfh,41.43
2023-05-27T02:10:00,mfh,41.19
2023-05-27T02:11:00,mfh,41.35
2023-05-27T02:12:00,mfh,40.53
2023-05-27T02:13:00,mfh,40.60
2023-05-27T02:14:00,mfh,40.61
2023-05-27T02:15:00,mfh,41.21
2023-05-27T02:16:00,mfh,41.84
2023-05-27T02:17:00,mfh,41.20
2023-05-27T02:18:00,mfh,41.14
2023-05-27T02:19:00,mfh,41.32
2023-05-27T02:20:00,mfh,40.55
2023-05-27T02:21:00,mfh,40.28
2023-05-27T02:22:00,mfh,40.23
2023-05-27T02:23:00,mfh,40.20
2023-05-27T02:24:00,mfh,40.79
2023-05-27T02:25:00,mfh,40.80
2023-05-27T02:26:00,mfh,40.79
2023-05-27T02:27:00,mfh,41.17
2023-05-27T02:28:00,mfh,41.79
2023-05-27T02:29:00,mfh,41.89
2023-05-27T02:30:00,mfh,41.05
2023-05-27T02:31:00,mfh,41.99
2023-05-27T02:32:00,mfh,40.90
2023-05-27T02:33:00,mfh,41.50
2023-05-27T02:34:00,mfh,40.98
2023-05-27T02:35:00,mfh,40.57
2023-05-27T02:36:00,mfh,40.61
2023-05-27T02:37:00,mfh,40.77
2023-05-27T02:38:00,mfh,40.14
2023-05-27T02:39:00,mfh,40.24
2023-05-27T02:40:00,mfh,40.39
2023-05-27T02:41:00,mfh,40.24
2023-05-27T02:42:00,mfh,40.88
2023-05-27T02:43:00,mfh,40.85
2023-05-27T02:44:00,mfh,41.10
2023-05-27T02:45:00,mfh,40.95
2023-05-27T02:46:00,mfh,41.34
2023-05-27T02:47:00,mfh,41.35
2023-05-27T02:48:00,mfh,40.05
2023-05-27T02:49:00,mfh,40.75
2023-05-27T02:50:00,mfh,40.01
2023-05-27T02:51:00,mfh,40.68
2023-05-27T02:52:00,mfh,40.63
2023-05-27T02:53:00,mfh,41.08
2023-05-27T02:54:00,mfh,41.40
2023-05-27T02:55:00,mfh,40.89
2023-05-27T02:56:00,mfh,41.07
2023-05-27T02:57:00,mfh,40.80
2023-05-27T02:58:00,mfh,40.52
2023-05-27T02:59:00,mfh,40.58
2023-05-27T03:00:00,mfh,41.12
2023-05-27T03:01:00,mfh,41.15
2023-05-27T03:02:00,mfh,41.05
2023-05-27T03:03:00,mfh,40.98
2023-05-27T03:04:00,mfh,41.02
2023-05-27T03:05:00,mfh,41.01
2023-05-27T03:06:00,mfh,40.36
2023-05-27T03:07:00,mfh,40.33
2023-05-27T03:08:00,mfh,40.41
2023-05-27T03:09:00,mfh,40.93
2023-05-27T03:10:00,mfh,41.10
2023-05-27T03:11:00,mfh,41.22
2023-05-27T03:12:00,mfh,40.91
2023-05-27T03:13:00,mfh,40.94
2023-05-27T03:14:00,mfh,41.09
2023-05-27T03:15:00,mfh,40.14
2023-05-27T03:16:00,mfh,40.64
2023-05-27T03:17:00,mfh,40.05
2023-05-27T03:18:00,mfh,40.63
2023-05-27T03:19:00,mfh,40.66
2023-05-27T03:20:00,mfh,40.64
2023-05-27T03:21:00,mfh,41.61
2023-05-27T03:22:00,mfh,40.98
2023-05-27T03:23:00,mfh,41.23
2023-05-27T03:24:00,mfh,40.51
2023-05-27T03:25:00,mfh,40.27
2023-05-27T03:26:00,mfh,40.18
2023-05-27T03:27:00,mfh,40.08
2023-05-27T03:28:00,mfh,40.62
2023-05-27T03:29:00,mfh,40.67
2023-05-27T03:30:00,mfh,40.58
2023-05-27T03:31:00,mfh,40.70
2023-05-27T03:32:00,mfh,40.73
2023-05-27T03:33:00,mfh,40.49
2023-05-27T03:34:00,mfh,40.18
2023-05-27T03:35:00,mfh,40.48
2023-05-27T03:36:00,mfh,41.57
2023-05-27T03:37:00,mfh,41.47
2023-05-27T03:38:00,mfh,42.90
2023-05-27T03:39:00,mfh,42.25
2023-05-27T03:40:00,mfh,41.84
2023-05-27T03:41:00,mfh,41.76
2023-05-27T03:42:00,mfh,41.59
2023-05-27T03:43:00,mfh,40.94
2023-05-27T03:44:00,mfh,42.08
2023-05-27T03:45:00,mfh,41.41
2023-05-27T03:46:00,mfh,42.41
2023-05-27T03:47:00,mfh,41.97
2023-05-27T03:48:00,mfh,41.84
2023-05-27T03:49:00,mfh,41.53
2023-05-27T03:50:00,mfh,41.53
2023-05-27T03:51:00,mfh,40.79
2023-05-27T03:52:00,mfh,40.78
2023-05-27T03:53:00,mfh,40.76
2023-05-27T03:54:00,mfh,41.24
2023-05-27T03:55:00,mfh,41.37
2023-05-27T03:56:00,mfh,41.47
2023-05-27T03:57:00,mfh,41.37
2023-05-27T03:58:00,mfh,42.23
2023-05-27T03:59:00,mfh,41.31
2023-05-27T04:00:00,mfh,41.07
2023-05-27T04:01:00,mfh,40.71
2023-05-27T04:02:00,mfh,40.84
2023-05-27T04:03:00,mfh,41.29
2023-05-27T04:04:00,mfh,41.96
2023-05-27T04:05:00,mfh,43.61
2023-05-27T04:06:00,mfh,43.70
2023-05-27T04:07:00,mfh,43.75
2023-05-27T04:08:00,mfh,43.79
2023-05-27T04:09:00,mfh,43.13
2023-05-27T04:10:00,mfh,41.46
2023-05-27T04:11:00,mfh,41.91
2023-05-27T04:12:00,mfh,41.24
2023-05-27T04:13:00,mfh,41.92
2023-05-27T04:14:00,mfh,42.04
2023-05-27T04:15:00,mfh,42.06
2023-05-27T04:16:00,mfh,41.99
2023-05-27T04:17:00,mfh,41.99
2023-05-27T04:18:00,mfh,42.01
2023-05-27T04:19:00,mfh,41.40
2023-05-27T04:20:00,mfh,42.12
2023-05-27T04:21:00,mfh,41.02
2023-05-27T04:22:00,mfh,41.53
2023-05-27T04:23:00,mfh,41.47
2023-05-27T04:24:00,mfh,41.39
2023-05-27T04:25:00,mfh,41.35
2023-05-27T04:26:00,mfh,41.53
2023-05-27T04:27:00,mfh,40.99
2023-05-27T04:28:00,mfh,41.88
2023-05-27T04:29:00,mfh,42.01
2023-05-27T04:30:00,mfh,41.43
2023-05-27T04:31:00,mfh,42.47
2023-05-27T04:32:00,mfh,42.28
2023-05-27T04:33:00,mfh,42.41
2023-05-27T04:34:00,mfh,42.39
2023-05-27T04:35:00,mfh,42.73
2023-05-27T04:36:00,mfh,41.53
2023-05-27T04:37:00,mfh,42.43
2023-05-27T04:38:00,mfh,41.48
2023-05-27T04:39:00,mfh,41.47
2023-05-27T04:40:00,mfh,42.17
2023-05-27T04:41:00,mfh,43.06
2023-05-27T04:42:00,mfh,42.00
2023-05-27T04:43:00,mfh,42.00
2023-05-27T04:44:00,mfh,41.85
2023-05-27T04:45:00,mfh,41.86
2023-05-27T04:46:00,mfh,41.12
2023-05-27T04:47:00,mfh,41.24
2023-05-27T04:48:00,mfh,41.22
2023-05-27T04:49:00,mfh,42.22
2023-05-27T04:50:00,mfh,42.20
2023-05-27T04:51:00,mfh,42.40
2023-05-27T04:52:00,mfh,41.92
2023-05-27T04:53:00,mfh,42.68
2023-05-27T04:54:00,mfh,42.02
2023-05-27T04:55:00,mfh,41.30
2023-05-27T04:56:00,mfh,41.27
2023-05-27T04:57:00,mfh,41.26
2023-05-27T04:58:00,mfh,42.69
2023-05-27T04:59:00,mfh,42.18
2023-05-27T05:00:00,mfh,42.10
2023-05-27T05:01:00,mfh,62.38
2023-05-27T05:02:00,mfh,63.29
2023-05-27T05:03:00,mfh,63.26
2023-05-27T05:04:00,mfh,62.49
2023-05-27T05:05:00,mfh,62.15
2023-05-27T05:06:00,mfh,62.16
2023-05-27T05:07:00,mfh,61.49
2023-05-27T05:08:00,mfh,63.06
2023-05-27T05:09:00,mfh,62.00
2023-05-27T05:10:00,mfh,62.92
2023-05-27T05:11:00,mfh,62.97
2023-05-27T05:12:00,mfh,62.50
2023-05-27T05:13:00,mfh,61.82
2023-05-27T05:14:00,mfh,62.45
2023-05-27T05:15:00,mfh,62.51
2023-05-27T05:16:00,mfh,62.21
2023-05-27T05:17:00,mfh,62.69
2023-05-27T05:18:00,mfh,61.88
2023-05-27T05:19:00,mfh,61.06
2023-05-27T05:20:00,mfh,60.95
2023-05-27T05:21:00,mfh,60.77
2023-05-27T05:22:00,mfh,59.56
2023-05-27T05:23:00,mfh,59.80
2023-05-27T05:24:00,mfh,60.02
2023-05-27T05:25:00,mfh,60.55
2023-05-27T05:26:00,mfh,61.48
2023-05-27T05:27:00,mfh,60.84
2023-05-27T05:28:00,mfh,60.85
2023-05-27T05:29:00,mfh,61.24
2023-05-27T05:30:00,mfh,60.99
2023-05-27T05:31:00,mfh,60.39
2023-05-27T05:32:00,mfh,60.87
2023-05-27T05:33:00,mfh,60.32
2023-05-27T05:34:00,mfh,60.70
2023-05-27T05:35:00,mfh,60.32
2023-05-27T05:36:00,mfh,60.36
2023-05-27T05:37:00,mfh,60.21
2023-05-27T05:38:00,mfh,60.13
2023-05-27T05:39:00,mfh,61.08
2023-05-27T05:40:00,mfh,59.39
2023-05-27T05:41:00,mfh,59.40
2023-05-27T05:42:00,mfh,59.51
2023-05-27T05:43:00,mfh,60.24
2023-05-27T05:44:00,mfh,60.32
2023-05-27T05:45:00,mfh,61.36
2023-05-27T05:46:00,mfh,60.25
2023-05-27T05:47:00,mfh,60.48
2023-05-27T05:48:00,mfh,60.94
2023-05-27T05:49:00,mfh,59.60
2023-05-27T05:50:00,mfh,60.09
2023-05-27T05:51:00,mfh,60.02
2023-05-27T05:52:00,mfh,60.18
2023-05-27T05:53:00,mfh,60.24
2023-05-27T05:54:00,mfh,60.23
2023-05-27T05:55:00,mfh,60.27
2023-05-27T05:56:00,mfh,60.38
2023-05-27T05:57:00,mfh,60.75
2023-05-27T05:58:00,mfh,59.58
2023-05-27T05:59:00,mfh,59.66
2023-05-27T06:00:00,mfh,59.56
2023-05-27T06:01:00,mfh,60.61
2023-05-27T06:02:00,mfh,60.35
2023-05-27T06:03:00,mfh,60.22
2023-05-27T06:04:00,mfh,60.13
2023-05-27T06:05:00,mfh,60.31
2023-05-27T06:06:00,mfh,60.37
2023-05-27T06:07:00,mfh,60.02
2023-05-27T06:08:00,mfh,60.02
2023-05-27T06:09:00,mfh,60.05
2023-05-27T06:10:00,mfh,59.78
2023-05-27T06:11:00,mfh,60.11
2023-05-27T06:12:00,mfh,60.10
2023-05-27T06:13:00,mfh,60.10
2023-05-27T06:14:00,mfh,60.01
2023-05-27T06:15:00,mfh,60.02
2023-05-27T06:16:00,mfh,59.38
2023-05-27T06:17:00,mfh,59.30
2023-05-27T06:18:00,mfh,59.30
2023-05-27T06:19:00,mfh,59.59
2023-05-27T06:20:00,mfh,62.42
2023-05-27T06:21:00,mfh,61.82
2023-05-27T06:22:00,mfh,61.98
2023-05-27T06:23:00,mfh,61.91
2023-05-27T06:24:00,mfh,60.35
2023-05-27T06:25:00,mfh,59.53
2023-05-27T06:26:00,mfh,59.79
2023-05-27T06:27:00,mfh,59.56
2023-05-27T06:28:00,mfh,59.65
2023-05-27T06:29:00,mfh,60.47
2023-05-27T06:30:00,mfh,60.30
2023-05-27T06:31:00,mfh,60.51
2023-05-27T06:32:00,mfh,61.44
2023-05-27T06:33:00,mfh,60.59
2023-05-27T06:34:00,mfh,59.96
2023-05-27T06:35:00,mfh,59.97
2023-05-27T06:36:00,mfh,60.52
2023-05-27T06:37:00,mfh,60.20
2023-05-27T06:38:00,mfh,60.59
2023-05-27T06:39:00,mfh,60.64
2023-05-27T06:40:00,mfh,60.21
2023-05-27T06:41:00,mfh,60.37
2023-05-27T06:42:00,mfh,60.32
2023-05-27T06:43:00,mfh,60.34
2023-05-27T06:44:00,mfh,59.85
2023-05-27T06:45:00,mfh,59.78
2023-05-27T06:46:00,mfh,59.67
2023-05-27T06:47:00,mfh,60.38
2023-05-27T06:48:00,mfh,60.41
2023-05-27T06:49:00,mfh,60.44
2023-05-27T06:50:00,mfh,60.31
2023-05-27T06:51:00,mfh,60.28
2023-05-27T06:52:00,mfh,60.99
2023-05-27T06:53:00,mfh,60.51
2023-05-27T06:54:00,mfh,59.62
2023-05-27T06:55:00,mfh,59.68
2023-05-27T06:56:00,mfh,60.36
2023-05-27T06:57:00,mfh,60.92
2023-05-27T06:58:00,mfh,60.22
2023-05-27T06:59:00,mfh,60.25
2023-05-27T07:00:00,mfh,60.22
2023-05-27T07:01:00,mfh,60.67
2023-05-27T07:02:00,mfh,59.63
2023-05-27T07:03:00,mfh,59.71
2023-05-27T07:04:00,mfh,59.55
2023-05-27T07:05:00,mfh,59.65
2023-05-27T07:06:00,mfh,60.48
2023-05-27T07:07:00,mfh,60.39
2023-05-27T07:08:00,mfh,61.10
2023-05-27T07:09:00,mfh,60.36
2023-05-27T07:10:00,mfh,60.25
2023-05-27T07:11:00,mfh,59.39
2023-05-27T07:12:00,mfh,59.32
2023-05-27T07:13:00,mfh,59.85
2023-05-27T07:14:00,mfh,60.07
2023-05-27T07:15:00,mfh,60.14
2023-05-27T07:16:00,mfh,60.20
2023-05-27T07:17:00,mfh,60.23
2023-05-27T07:18:00,mfh,60.19
2023-05-27T07:19:00,mfh,60.47
2023-05-27T07:20:00,mfh,59.82
2023-05-27T07:21:00,mfh,59.93
2023-05-27T07:22:00,mfh,59.67
2023-05-27T07:23:00,mfh,59.99
2023-05-27T07:24:00,mfh,60.85
2023-05-27T07:25:00,mfh,60.67
2023-05-27T07:26:00,mfh,60.73
2023-05-27T07:27:00,mfh,60.68
2023-05-27T07:28:00,mfh,57.77
2023-05-27T07:29:00,mfh,57.21
2023-05-27T07:30:00,mfh,57.06
2023-05-27T07:31:00,mfh,57.07
2023-05-27T07:32:00,mfh,57.52
2023-05-27T07:33:00,mfh,58.00
2023-05-27T07:34:00,mfh,58.13
2023-05-27T07:35:00,mfh,57.97
2023-05-27T07:36:00,mfh,57.92
2023-05-27T07:37:00,mfh,57.79
2023-05-27T07:38:00,mfh,57.57
2023-05-27T07:39:00,mfh,57.51
2023-05-27T07:40:00,mfh,57.02
2023-05-27T07:41:00,mfh,57.78
2023-05-27T07:42:00,mfh,57.77
2023-05-27T07:43:00,mfh,57.93
2023-05-27T07:44:00,mfh,57.90
2023-05-27T07:45:00,mfh,57.96
2023-05-27T07:46:00,mfh,58.87
2023-05-27T07:47:00,mfh,57.53
2023-05-27T07:48:00,mfh,57.48
2023-05-27T07:49:00,mfh,57.63
2023-05-27T07:50:00,mfh,57.53
2023-05-27T07:51:00,mfh,57.94
2023-05-27T07:52:00,mfh,57.87
2023-05-27T07:53:00,mfh,57.91
2023-05-27T07:54:00,mfh,57.84
2023-05-27T07:55:00,mfh,57.70
2023-05-27T07:56:00,mfh,58.33
2023-05-27T07:57:00,mfh,57.17
2023-05-27T07:58:00,mfh,57.09
2023-05-27T07:59:00,mfh,57.19
2023-05-27T08:00:00,mfh,58.02
2023-05-27T08:01:00,mfh,58.78
2023-05-27T08:02:00,mfh,58.81
2023-05-27T08:03:00,mfh,58.74
2023-05-27T08:04:00,mfh,59.27
2023-05-27T08:05:00,mfh,58.02
2023-05-27T08:06:00,mfh,57.47
2023-05-27T08:07:00,mfh,57.08
2023-05-27T08:08:00,mfh,56.97
2023-05-27T08:09:00,mfh,57.80
2023-05-27T08:10:00,mfh,58.36
2023-05-27T08:11:00,mfh,57.75
2023-05-27T08:12:00,mfh,57.73
2023-05-27T08:13:00,mfh,57.80
2023-05-27T08:14:00,mfh,57.81
2023-05-27T08:15:00,mfh,57.38
2023-05-27T08:16:00,mfh,56.49
2023-05-27T08:17:00,mfh,56.46
2023-05-27T08:18:00,mfh,57.01
2023-05-27T08:19:00,mfh,57.84
2023-05-27T08:20:00,mfh,58.05
2023-05-27T08:21:00,mfh,57.61
2023-05-27T08:22:00,mfh,57.66
2023-05-27T08:23:00,mfh,57.03
2023-05-27T08:24:00,mfh,57.26
2023-05-27T08:25:00,mfh,56.92
2023-05-27T08:26:00,mfh,56.92
2023-05-27T08:27:00,mfh,59.45
2023-05-27T08:28:00,mfh,57.75
2023-05-27T08:29:00,mfh,57.68
2023-05-27T08:30:00,mfh,57.80
2023-05-27T08:31:00,mfh,61.84
2023-05-27T08:32:00,mfh,62.04
2023-05-27T08:33:00,mfh,61.18
2023-05-27T08:34:00,mfh,61.20
2023-05-27T08:35:00,mfh,61.04
2023-05-27T08:36:00,mfh,62.30
2023-05-27T08:37:00,mfh,62.50
2023-05-27T08:38:00,mfh,62.12
2023-05-27T08:39:00,mfh,62.14
2023-05-27T08:40:00,mfh,61.82
2023-05-27T08:41:00,mfh,61.76
2023-05-27T08:42:00,mfh,61.89
2023-05-27T08:43:00,mfh,61.45
2023-05-27T08:44:00,mfh,61.34
2023-05-27T08:45:00,mfh,63.03
2023-05-27T08:46:00,mfh,63.53
2023-05-27T08:47:00,mfh,64.43
2023-05-27T08:48:00,mfh,64.36
2023-05-27T08:49:00,mfh,62.78
2023-05-27T08:50:00,mfh,62.70
2023-05-27T08:51:00,mfh,62.71
2023-05-27T08:52:00,mfh,62.79
2023-05-27T08:53:00,mfh,62.71
2023-05-27T08:54:00,mfh,62.96
2023-05-27T08:55:00,mfh,62.51
2023-05-27T08:56:00,mfh,61.96
2023-05-27T08:57:00,mfh,62.11
2023-05-27T08:58:00,mfh,63.10
2023-05-27T08:59:00,mfh,62.38
2023-05-27T09:00:00,mfh,62.30
2023-05-27T09:01:00,mfh,62.25
2023-05-27T09:02:00,mfh,62.36
2023-05-27T09:03:00,mfh,62.34
2023-05-27T09:04:00,mfh,62.84
2023-05-27T09:05:00,mfh,61.63
2023-05-27T09:06:00,mfh,61.78
2023-05-27T09:07:00,mfh,61.58
2023-05-27T09:08:00,mfh,62.14
2023-05-27T09:09:00,mfh,62.26
2023-05-27T09:10:00,mfh,62.51
2023-05-27T09:11:00,mfh,63.05
2023-05-27T09:12:00,mfh,62.54
2023-05-27T09:13:00,mfh,63.04
2023-05-27T09:14:00,mfh,62.67
2023-05-27T09:15:00,mfh,62.67
2023-05-27T09:16:00,mfh,62.70
2023-05-27T09:17:00,mfh,61.97
2023-05-27T09:18:00,mfh,62.03
2023-05-27T09:19:00,mfh,62.40
2023-05-27T09:20:00,mfh,62.45
2023-05-27T09:21:00,mfh,62.58
2023-05-27T09:22:00,mfh,62.45
2023-05-27T09:23:00,mfh,62.54
2023-05-27T09:24:00,mfh,63.34
2023-05-27T09:25:00,mfh,63.14
2023-05-27T09:26:00,mfh,61.84
2023-05-27T09:27:00,mfh,61.85
2023-05-27T09:28:00,mfh,62.17
2023-05-27T09:29:00,mfh,62.58
2023-05-27T09:30:00,mfh,62.51
2023-05-27T09:31:00,mfh,62.53
2023-05-27T09:32:00,mfh,62.67
2023-05-27T09:33:00,mfh,62.61
2023-05-27T09:34:00,mfh,63.14
2023-05-27T09:35:00,mfh,62.48
2023-05-27T09:36:00,mfh,62.61
2023-05-27T09:37:00,mfh,62.09
2023-05-27T09:38:00,mfh,62.06
2023-05-27T09:39:00,mfh,62.09
2023-05-27T09:40:00,mfh,62.62
2023-05-27T09:41:00,mfh,62.66
2023-05-27T09:42:00,mfh,62.65
2023-05-27T09:43:00,mfh,62.68
2023-05-27T09:44:00,mfh,62.56
2023-05-27T09:45:00,mfh,62.59
2023-05-27T09:46:00,mfh,62.50
2023-05-27T09:47:00,mfh,62.15
2023-05-27T09:48:00,mfh,61.93
2023-05-27T09:49:00,mfh,62.08
2023-05-27T09:50:00,mfh,62.78
2023-05-27T09:51:00,mfh,62.73
2023-05-27T09:52:00,mfh,62.58
2023-05-27T09:53:00,mfh,62.52
2023-05-27T09:54:00,mfh,62.60
2023-05-27T09:55:00,mfh,62.55
2023-05-27T09:56:00,mfh,62.52
2023-05-27T09:57:00,mfh,62.47
2023-05-27T09:58:00,mfh,62.92
2023-05-27T09:59:00,mfh,61.81
2023-05-27T10:00:00,mfh,61.24
2023-05-27T10:01:00,mfh,61.45
2023-05-27T10:02:00,mfh,61.44
2023-05-27T10:03:00,mfh,61.68
2023-05-27T10:04:00,mfh,61.65
2023-05-27T10:05:00,mfh,61.84
2023-05-27T10:06:00,mfh,62.47
2023-05-27T10:07:00,mfh,61.59
2023-05-27T10:08:00,mfh,61.66
2023-05-27T10:09:00,mfh,61.71
2023-05-27T10:10:00,mfh,61.08
2023-05-27T10:11:00,mfh,61.72
2023-05-27T10:12:00,mfh,61.13
2023-05-27T10:13:00,mfh,62.31
2023-05-27T10:14:00,mfh,62.10
2023-05-27T10:15:00,mfh,62.35
2023-05-27T10:16:00,mfh,62.03
2023-05-27T10:17:00,mfh,62.03
2023-05-27T10:18:00,mfh,62.20
2023-05-27T10:19:00,mfh,62.11
2023-05-27T10:20:00,mfh,62.24
2023-05-27T10:21:00,mfh,62.10
2023-05-27T10:22:00,mfh,61.17
2023-05-27T10:23:00,mfh,61.59
2023-05-27T10:24:00,mfh,62.88
2023-05-27T10:25:00,mfh,62.19
2023-05-27T10:26:00,mfh,62.06
2023-05-27T10:27:00,mfh,62.13
2023-05-27T10:28:00,mfh,62.21
2023-05-27T10:29:00,mfh,62.26
2023-05-27T10:30:00,mfh,62.14
2023-05-27T10:31:00,mfh,62.54
2023-05-27T10:32:00,mfh,61.52
2023-05-27T10:33:00,mfh,61.58
2023-05-27T10:34:00,mfh,62.14
2023-05-27T10:35:00,mfh,62.75
2023-05-27T10:36:00,mfh,62.05
2023-05-27T10:37:00,mfh,62.44
2023-05-27T10:38:00,mfh,61.91
2023-05-27T10:39:00,mfh,61.13
2023-05-27T10:40:00,mfh,61.79
2023-05-27T10:41:00,mfh,61.55
2023-05-27T10:42:00,mfh,61.18
2023-05-27T10:43:00,mfh,61.30
2023-05-27T10:44:00,mfh,60.67
2023-05-27T10:45:00,mfh,60.76
2023-05-27T10:46:00,mfh,61.30
2023-05-27T10:47:00,mfh,61.38
2023-05-27T10:48:00,mfh,61.33
2023-05-27T10:49:00,mfh,61.41
2023-05-27T10:50:00,mfh,61.43
2023-05-27T10:51:00,mfh,61.20
2023-05-27T10:52:00,mfh,61.42
2023-05-27T10:53:00,mfh,61.09
2023-05-27T10:54:00,mfh,61.13
2023-05-27T10:55:00,mfh,61.38
2023-05-27T10:56:00,mfh,60.52
2023-05-27T10:57:00,mfh,61.41
2023-05-27T10:58:00,mfh,61.33
2023-05-27T10:59:00,mfh,61.44
2023-05-27T11:00:00,mfh,61.31
2023-05-27T11:01:00,mfh,61.34
2023-05-27T11:02:00,mfh,61.12
2023-05-27T11:03:00,mfh,61.10
2023-05-27T11:04:00,mfh,60.89
2023-05-27T11:05:00,mfh,61.23
2023-05-27T11:06:00,mfh,60.43
2023-05-27T11:07:00,mfh,61.12
2023-05-27T11:08:00,mfh,60.47
2023-05-27T11:09:00,mfh,61.35
2023-05-27T11:10:00,mfh,60.87
2023-05-27T11:11:00,mfh,60.81
2023-05-27T11:12:00,mfh,60.60
2023-05-27T11:13:00,mfh,61.22
2023-05-27T11:14:00,mfh,60.92
2023-05-27T11:15:00,mfh,60.94
2023-05-27T11:16:00,mfh,60.21
2023-05-27T11:17:00,mfh,60.24
2023-05-27T11:18:00,mfh,60.82
2023-05-27T11:19:00,mfh,60.83
2023-05-27T11:20:00,mfh,61.78
2023-05-27T11:21:00,mfh,62.54
2023-05-27T11:22:00,mfh,62.14
2023-05-27T11:23:00,mfh,61.99
2023-05-27T11:24:00,mfh,61.95
2023-05-27T11:25:00,mfh,61.98
2023-05-27T11:26:00,mfh,62.60
2023-05-27T11:27:00,mfh,62.20
2023-05-27T11:28:00,mfh,62.12
2023-05-27T11:29:00,mfh,62.00
2023-05-27T11:30:00,mfh,62.95
2023-05-27T11:31:00,mfh,61.86
2023-05-27T11:32:00,mfh,69.98
2023-05-27T11:33:00,mfh,70.38
2023-05-27T11:34:00,mfh,70.70
2023-05-27T11:35:00,mfh,70.75
2023-05-27T11:36:00,mfh,70.12
2023-05-27T11:37:00,mfh,70.09
2023-05-27T11:38:00,mfh,70.43
2023-05-27T11:39:00,mfh,69.35
2023-05-27T11:40:00,mfh,69.91
2023-05-27T11:41:00,mfh,70.14
2023-05-27T11:42:00,mfh,70.13
2023-05-27T11:43:00,mfh,69.99
2023-05-27T11:44:00,mfh,70.37
2023-05-27T11:45:00,mfh,70.02
2023-05-27T11:46:00,mfh,69.87
2023-05-27T11:47:00,mfh,70.04
2023-05-27T11:48:00,mfh,70.74
2023-05-27T11:49:00,mfh,69.11
2023-05-27T11:50:00,mfh,69.86
2023-05-27T11:51:00,mfh,70.02
2023-05-27T11:52:00,mfh,69.75
2023-05-27T11:53:00,mfh,70.33
2023-05-27T11:54:00,mfh,69.91
2023-05-27T11:55:00,mfh,69.67
2023-05-27T11:56:00,mfh,70.06
2023-05-27T11:57:00,mfh,69.99
2023-05-27T11:58:00,mfh,69.66
2023-05-27T11:59:00,mfh,69.88
2023-05-27T12:00:00,mfh,68.89
2023-05-27T12:01:00,mfh,68.82
2023-05-27T12:02:00,mfh,68.86
2023-05-27T12:03:00,mfh,69.46
2023-05-27T12:04:00,mfh,69.36
2023-05-27T12:05:00,mfh,69.13
2023-05-27T12:06:00,mfh,69.20
2023-05-27T12:07:00,mfh,69.95
2023-05-27T12:08:00,mfh,69.29
2023-05-27T12:09:00,mfh,69.41
2023-05-27T12:10:00,mfh,69.45
2023-05-27T12:11:00,mfh,68.76
2023-05-27T12:12:00,mfh,68.64
2023-05-27T12:13:00,mfh,68.71
2023-05-27T12:14:00,mfh,69.31
2023-05-27T12:15:00,mfh,69.33
2023-05-27T12:16:00,mfh,69.28
2023-05-27T12:17:00,mfh,69.39
2023-05-27T12:18:00,mfh,69.41
2023-05-27T12:19:00,mfh,69.64
2023-05-27T12:20:00,mfh,69.69
2023-05-27T12:21:00,mfh,68.90
2023-05-27T12:22:00,mfh,68.92
2023-05-27T12:23:00,mfh,69.14
2023-05-27T12:24:00,mfh,69.00
2023-05-27T12:25:00,mfh,70.52
2023-05-27T12:26:00,mfh,69.67
2023-05-27T12:27:00,mfh,69.59
2023-05-27T12:28:00,mfh,69.65
2023-05-27T12:29:00,mfh,69.44
2023-05-27T12:30:00,mfh,60.99
2023-05-27T12:31:00,mfh,60.86
2023-05-27T12:32:00,mfh,60.77
2023-05-27T12:33:00,mfh,60.64
2023-05-27T12:34:00,mfh,60.67
2023-05-27T12:35:00,mfh,60.16
2023-05-27T12:36:00,mfh,60.92
2023-05-27T12:37:00,mfh,61.09
2023-05-27T12:38:00,mfh,61.09
2023-05-27T12:39:00,mfh,61.90
2023-05-27T12:40:00,mfh,60.82
2023-05-27T12:41:00,mfh,60.75
2023-05-27T12:42:00,mfh,60.77
2023-05-27T12:43:00,mfh,60.41
2023-05-27T12:44:00,mfh,60.20
2023-05-27T12:45:00,mfh,60.19
2023-05-27T12:46:00,mfh,61.32
2023-05-27T12:47:00,mfh,60.76
2023-05-27T12:48:00,mfh,60.86
2023-05-27T12:49:00,mfh,60.97
2023-05-27T12:50:00,mfh,60.88
2023-05-27T12:51:00,mfh,60.61
2023-05-27T12:52:00,mfh,60.56
2023-05-27T12:53:00,mfh,61.30
2023-05-27T12:54:00,mfh,60.47
2023-05-27T12:55:00,mfh,59.80
2023-05-27T12:56:00,mfh,59.73
2023-05-27T12:57:00,mfh,59.85
2023-05-27T12:58:00,mfh,60.54
2023-05-27T12:59:00,mfh,60.30
2023-05-27T13:00:00,mfh,60.54
2023-05-27T13:01:00,mfh,60.63
2023-05-27T13:02:00,mfh,60.83
2023-05-27T13:03:00,mfh,60.40
2023-05-27T13:04:00,mfh,60.44
2023-05-27T13:05:00,mfh,60.07
2023-05-27T13:06:00,mfh,59.78
2023-05-27T13:07:00,mfh,60.07
2023-05-27T13:08:00,mfh,60.47
2023-05-27T13:09:00,mfh,60.51
2023-05-27T13:10:00,mfh,60.40
2023-05-27T13:11:00,mfh,60.55
2023-05-27T13:12:00,mfh,60.35
2023-05-27T13:13:00,mfh,60.91
2023-05-27T13:14:00,mfh,60.55
2023-05-27T13:15:00,mfh,60.47
2023-05-27T13:16:00,mfh,59.64
2023-05-27T13:17:00,mfh,59.51
2023-05-27T13:18:00,mfh,59.70